Kenai, AK

5:45 PM AKST on February 23, 2017 (GMT -0900)
Kenai Municipal

Weather History for PAEN - May, 2013

Change the Weather History Date:

Friday, May 17, 2013

  Actual Average Record
Temperature  
Mean Temperature 38 °F -  
Max Temperature 44 °F 52 °F 72 °F (2014)
Min Temperature 32 °F 35 °F 25 °F (1964)
Degree Days  
Heating Degree Days 27    
Moisture  
Dew Point 34 °F    
Average Humidity 94    
Maximum Humidity 100    
Minimum Humidity 71    
Precipitation  
Precipitation 0.35 in - - ()
Sea Level Pressure  
Sea Level Pressure 29.44 in    
Wind  
Wind Speed 3 mph (NE)    
Max Wind Speed 10 mph    
Max Gust Speed -    
Visibility 8 miles    
Events Rain , Snow    
Averages and records for this station are not official NWS values.
T = Trace of Precipitation, MM = Missing Value Source: NWS Daily Summary

Daily Weather History Graph

Daily Weather History Graph

Search for Another Location

Airport or City:

Trip Planner

Search our weather history database for the weather conditions in past years. The results will help you decide how hot, cold, wet, or windy it might be!

Date:

Astronomy

May. 17, 2013 Rise Set
Actual Time 5:17 AM AKDT 10:47 PM AKDT
Civil Twilight 4:08 AM AKDT 11:57 PM AKDT
Nautical Twilight 2:33 AM AKDT 1:28 AM AKDT
Astronomical Twilight Sun does not rise Sun does not rise
Moon 12:55 PM AKDT (5/17) 2:54 AM AKDT (5/17)
Length of Visible Light 19h 49m
Length of Day
17h 30m
Waxing Crescent, 46% of the Moon is Illuminated
May 17
Waxing Crescent
May 17
First Quarter
May 24
Full
May 31
Last Quarter
Jun 8
New

Hourly Weather History & Observations

Time (AKDT) Temp. Windchill Dew Point Humidity Pressure Visibility Wind Dir Wind Speed Gust Speed Precip Events Conditions
12:36 AM 37.4 °F 34.9 °F 37.4 °F 100% 29.43 in 10.0 mi ENE 3.5 mph - 0.01 in Rain Light Rain
12:53 AM 37.0 °F 33.3 °F 36.0 °F 96% 29.44 in 10.0 mi East 4.6 mph - 0.02 in Rain Light Rain
1:48 AM 35.6 °F - 35.6 °F 100% 29.43 in 10.0 mi Calm Calm - 0.03 in Rain Light Rain
1:53 AM 36.0 °F - 36.0 °F 100% 29.44 in 9.0 mi Calm Calm - 0.03 in Rain Light Rain
2:36 AM 37.4 °F - 37.4 °F 100% 29.42 in 10.0 mi Calm Calm - 0.03 in Rain Light Rain
2:53 AM 36.0 °F - 36.0 °F 100% 29.43 in 10.0 mi Calm Calm - 0.04 in Rain Light Rain
3:53 AM 36.0 °F 33.3 °F 36.0 °F 100% 29.43 in 10.0 mi ESE 3.5 mph - 0.05 in Rain Light Rain
4:14 AM 35.6 °F 31.7 °F 35.6 °F 100% 29.41 in 10.0 mi SE 4.6 mph - 0.01 in Rain Light Rain
4:38 AM 35.6 °F 32.8 °F 35.6 °F 100% 29.41 in 10.0 mi SE 3.5 mph - 0.03 in Rain Light Rain
4:53 AM 35.1 °F - 34.0 °F 96% 29.42 in 10.0 mi Calm Calm - 0.04 in Rain Light Rain
5:21 AM 33.8 °F - 33.8 °F 100% 29.41 in 10.0 mi Calm Calm - 0.01 in Rain Light Rain
5:53 AM 33.1 °F - 33.1 °F 100% 29.41 in 10.0 mi Calm Calm - 0.03 in Rain Light Rain
6:53 AM 32.0 °F - 32.0 °F 100% 29.41 in 3.0 mi Calm Calm - 0.03 in Snow Light Snow
7:01 AM 32.0 °F - 32.0 °F 100% 29.40 in 1.8 mi Calm Calm - 0.01 in Snow Light Snow
7:07 AM 32.0 °F - 32.0 °F 100% 29.40 in 2.0 mi Calm Calm - 0.01 in Snow Light Snow
7:53 AM 32.0 °F 28.7 °F 32.0 °F 100% 29.40 in 3.0 mi North 3.5 mph - 0.02 in Snow Light Snow
8:09 AM 32.0 °F 27.5 °F 32.0 °F 100% 29.40 in 3.0 mi North 4.6 mph - 0.01 in Snow Light Snow
8:16 AM 32.0 °F 28.7 °F 32.0 °F 100% 29.40 in 2.0 mi NNE 3.5 mph - 0.01 in Snow Light Snow
8:45 AM 32.0 °F - 32.0 °F 100% 29.40 in 2.0 mi Calm Calm - 0.02 in Snow Light Snow
8:53 AM 33.1 °F - 33.1 °F 100% 29.41 in 3.0 mi Calm Calm - 0.02 in Snow Light Snow
9:44 AM 33.8 °F - 33.8 °F 100% 29.41 in 10.0 mi Calm Calm - 0.00 in   Overcast
9:53 AM 34.0 °F - 33.1 °F 96% 29.42 in 10.0 mi Calm Calm - 0.00 in   Overcast
10:25 AM 33.8 °F 28.6 °F 33.8 °F 100% 29.41 in 1.8 mi WSW 5.8 mph - N/A   Overcast
10:46 AM 35.6 °F 30.7 °F 35.6 °F 100% 29.42 in 2.0 mi WSW 5.8 mph - N/A   Overcast
10:53 AM 35.1 °F 30.1 °F 35.1 °F 100% 29.42 in 2.0 mi West 5.8 mph - N/A   Overcast
11:53 AM 35.1 °F 29.3 °F 35.1 °F 100% 29.44 in 4.0 mi WNW 6.9 mph - N/A   Overcast
12:53 PM 37.9 °F 35.5 °F 35.1 °F 89% 29.44 in 10.0 mi Variable 3.5 mph - N/A   Overcast
1:53 PM 39.9 °F 37.8 °F 35.1 °F 83% 29.44 in 10.0 mi North 3.5 mph - N/A   Overcast
2:06 PM 39.2 °F 35.9 °F 35.6 °F 87% 29.44 in 10.0 mi West 4.6 mph - N/A   Overcast
2:53 PM 41.0 °F 37.1 °F 35.1 °F 79% 29.44 in 10.0 mi NNW 5.8 mph - N/A   Overcast
3:53 PM 41.0 °F 38.0 °F 35.1 °F 79% 29.45 in 10.0 mi WSW 4.6 mph - N/A   Overcast
4:53 PM 43.0 °F - 36.0 °F 76% 29.45 in 10.0 mi Calm Calm - N/A   Overcast
4:56 PM 44.6 °F 41.4 °F 35.6 °F 71% 29.44 in 10.0 mi Variable 5.8 mph - N/A   Overcast
5:13 PM 42.8 °F 39.3 °F 35.6 °F 76% 29.44 in 10.0 mi WNW 5.8 mph - N/A   Overcast
5:53 PM 42.1 °F 36.1 °F 35.1 °F 76% 29.45 in 10.0 mi NE 10.4 mph - N/A   Overcast
6:53 PM 39.9 °F 37.8 °F 35.1 °F 83% 29.46 in 10.0 mi East 3.5 mph - 0.00 in Rain Light Rain
7:53 PM 37.9 °F 33.5 °F 35.1 °F 89% 29.47 in 10.0 mi ENE 5.8 mph - 0.02 in   Overcast
8:26 PM 37.4 °F 32.8 °F 35.6 °F 93% 29.47 in 10.0 mi NE 5.8 mph - N/A   Overcast
8:37 PM 37.4 °F 32.1 °F 35.6 °F 93% 29.47 in 10.0 mi ENE 6.9 mph - N/A   Overcast
8:53 PM 37.0 °F 31.6 °F 35.1 °F 93% 29.49 in 10.0 mi ENE 6.9 mph - N/A   Overcast
9:43 PM 35.6 °F 30.7 °F 33.8 °F 93% 29.50 in 10.0 mi East 5.8 mph - N/A   Overcast
9:53 PM 35.1 °F 27.9 °F 34.0 °F 96% 29.51 in 10.0 mi East 9.2 mph - 0.00 in Rain Light Rain
10:18 PM 35.6 °F 31.7 °F 33.8 °F 93% 29.51 in 9.0 mi East 4.6 mph - 0.01 in Rain Light Rain
10:53 PM 35.1 °F 31.0 °F 34.0 °F 96% 29.52 in 8.0 mi East 4.6 mph - 0.03 in Rain Light Rain
11:12 PM 33.8 °F 28.6 °F 33.8 °F 100% 29.52 in 9.0 mi East 5.8 mph - 0.01 in   Overcast
11:38 PM 33.8 °F 25.8 °F 33.8 °F 100% 29.53 in 7.0 mi ENE 10.4 mph - 0.02 in Snow Light Snow
11:53 PM 33.1 °F 26.1 °F 33.1 °F 100% 29.54 in 5.0 mi NE 8.1 mph - 0.02 in Snow Light Snow